World > North America > United States > Missouri > Town and Country  

Town and Country, MO Hourly Weather Updates

Feedback E-mail the Weather

Quick WX

Town and Country, MO Weather Maps

°F °C°F °C
Town And Country Weather Map
UTC Time: 2/23/2024, 11:19
Your Time:

Town and Country, MO Regional Weather

Expires:202402231200;;556629
ASUS43 KEAX 231115
RWREAX

WEATHER ROUNDUP FOR EASTERN KANSAS AND NORTHWEST MISSOURI
NATIONAL WEATHER SERVICE KANSAS CITY/PLEASANT HILL MO
500 AM CST FRI FEB 23 2024


MOZ041-047>049-056>058-063>065-088>090-097-231200-
...EASTERN AND SOUTHERN MISSOURI...
  
CITY           SKY/WX    TMP DP  RH WIND       PRES   REMARKS
ST. LOUIS INTL CLEAR     43  30  60 NW6       29.82R                  
SPIRIT OF STL  CLEAR     42  32  67 W6        29.83R                  
COLUMBIA       CLEAR     40  32  73 NW8       29.87R WCI  34          
JEFFERSON CITY CLEAR     43  33  68 NW6       29.88R                  
MEXICO         CLEAR     36  32  87 NW7       29.87R WCI  30          
ROLLA          CLEAR     42  32  67 NW8       29.87R                  
LEBANON        CLEAR    N/A N/A N/A NW6       29.90S                  
OSAGE BEACH    CLEAR     44  34  67 NW3       29.91R                  
SPRINGFIELD    CLEAR     39  33  79 NW8       29.91R WCI  33          
BRANSON        CLEAR     46  36  66 NW6       29.92R                  
JOPLIN         CLEAR     42  33  70 NW3       29.97R                  
WEST PLAINS    CLEAR     48  33  56 N10       29.87R                  
SIKESTON       CLEAR     45  41  87 CALM      29.78S                  

$$


SKY/WX - Weather  TMP - Temperature  DP - Dew Point  RH - Humidity
WIND - Wind Direction/Speed PRES - Barometric Pressure VSB - Visibility
WCI - Wind Chill Index E13G22 Wind - East Wind 13 mph/Gusts of 22 mph

Trending Headlines

Trending Entertainment Headlines

Town and Country Radar Loop

Use the map search tool if you want to place a location marker on the radar map...

Town and Country Quick Facts

National Two Day Weather Forecast


E-mail the Town and Country Weather Forecast

Voice your opinion or tell us about page issues...